DMSP 5D-3 F18 (USA 210)

Last updated on Wed Sep 17 2025 00:02:22 GMT+0000 (Coordinated Universal Time)

1 35951U 09057A 25259.52304102 .00000250 00000+0 15287-3 0 9996 2 35951 98.8709 236.4091 0010312 314.1118 45.9206 14.14695273820892
UTC large
Height (km)
Speed (km/s)
/
Latitude / Longitude
Inclination (degrees)
Orbital Period (minutes)
Azimuth
Elevation
Range (km)
Doppler Factor

Next 0 passes for location: London (51.5072 / 0.1276)

Sorry there are no passes over London.